Погода в Ныргынде

Россия / Удмуртская Республика     55°54′11″N   53°20′24″E
темп.,
°C
ветер,
м/с
пор.,
м/с
влажн.,
%
обл.,
%
осадки,
мм/ч
давл.,
гПа
погр.,
м
17 апреля, сб
сб1701:00+4св511680 0.0 1026253
04:00+2св410730 0.0 1027206
07:00+3св410695 0.0 1027272
10:00+8св67475 0.0 1027594
13:00+11св56325 0.0 10261065
16:00+12ссв44335 0.0 10251223
19:00+9ссв36505 0.0 1025131
22:00+6ссв22590 0.0 102517
18 апреля, вс
вс1801:00+4с22690 0.0 102420
04:00+3с22745 0.0 102520
07:00+4с26765 0.0 1025186
10:00+9ссв56575 0.0 1025904
13:00+10св875485 0.0 10251515
16:00+9св774480 0.0 10261600
19:00+6св594172 0.0 1027468
22:00+4всв71348100 0.0 1029623
19 апреля, пн
пн1901:00+2всв71450100 0.0 1030619
04:000всв71353100 0.0 1032519
07:000всв7135270 0.0 1033662
10:00+3в911330 0.0 10331346
13:00+6в810280 0.0 10331632
16:00+6в78270 0.0 10331680
19:00+4в610340 0.0 1034513
22:00+1в512440 0.0 1035336
20 апреля, вт
вт2001:000в411490 0.0 1035275
04:00−1в48540 0.0 1036181
07:00+1вюв47500 0.0 1037268
10:00+5вюв45320 0.0 1037955
13:00+7вюв45270 0.0 10351180
16:00+9вюв44250 0.0 10341198
19:00+6вюв35370 0.0 1033105
22:00+3вюв33430 0.0 103328
21 апреля, ср
ср2101:00+2вюв335065 0.0 103342
04:00+1юв345484 0.0 103350
07:00+3юв38505 0.0 1033212
10:00+8ююв6932100 0.0 1032811
13:00+12ююв792589 0.0 10301175
16:00+13ююв782487 0.0 10301471
19:00+10ю483689 0.0 1030160
22:00+7юв3947100 0.0 1031149